TimeCST,TemperatureF,Dew PointF,Humidity,Sea Level PressureIn,VisibilityMPH,Wind Direction,Wind SpeedMPH,Gust SpeedMPH,PrecipitationIn,Events,Conditions,WindDirDegrees,DateUTC
12:15 AM,53.6,50.0,88,30.08,10.0,North,8.1,18.4,N/A,,Overcast,350,2013-01-02 06:15:00
12:35 AM,53.6,48.2,82,30.08,10.0,North,9.2,16.1,N/A,,Overcast,360,2013-01-02 06:35:00
12:55 AM,53.6,48.2,82,30.08,10.0,North,9.2,-,N/A,,Overcast,360,2013-01-02 06:55:00
1:15 AM,53.6,48.2,82,30.07,10.0,North,8.1,16.1,N/A,,Overcast,360,2013-01-02 07:15:00
1:35 AM,53.6,48.2,82,30.08,10.0,NNE,8.1,-,N/A,,Overcast,20,2013-01-02 07:35:00
1:55 AM,51.8,48.2,88,30.09,10.0,North,6.9,16.1,N/A,,Overcast,360,2013-01-02 07:55:00
2:15 AM,51.8,46.4,82,30.08,10.0,North,10.4,17.3,N/A,,Overcast,10,2013-01-02 08:15:00
2:35 AM,51.8,46.4,82,30.09,10.0,North,9.2,17.3,N/A,,Overcast,360,2013-01-02 08:35:00
2:55 AM,51.8,46.4,82,30.09,10.0,North,6.9,-,N/A,,Overcast,10,2013-01-02 08:55:00
3:15 AM,51.8,46.4,82,30.08,10.0,NNE,9.2,-,N/A,,Overcast,20,2013-01-02 09:15:00
3:35 AM,51.8,46.4,82,30.09,10.0,North,9.2,-,N/A,,Overcast,10,2013-01-02 09:35:00
3:55 AM,51.8,46.4,82,30.09,10.0,North,9.2,-,N/A,,Overcast,10,2013-01-02 09:55:00
4:15 AM,50.0,44.6,82,30.08,10.0,North,9.2,16.1,N/A,,Overcast,10,2013-01-02 10:15:00
4:35 AM,50.0,46.4,87,30.09,10.0,North,4.6,-,N/A,,Overcast,10,2013-01-02 10:35:00
4:55 AM,50.0,46.4,87,30.10,10.0,North,8.1,-,N/A,,Overcast,10,2013-01-02 10:55:00
5:15 AM,50.0,46.4,87,30.10,10.0,North,5.8,-,N/A,,Overcast,360,2013-01-02 11:15:00
5:35 AM,50.0,44.6,82,30.10,10.0,North,6.9,16.1,N/A,,Overcast,10,2013-01-02 11:35:00
5:55 AM,50.0,44.6,82,30.12,10.0,North,9.2,-,N/A,,Overcast,350,2013-01-02 11:55:00
6:15 AM,48.2,44.6,87,30.12,10.0,NNE,9.2,-,N/A,,Overcast,20,2013-01-02 12:15:00
6:35 AM,48.2,44.6,87,30.13,10.0,North,10.4,-,N/A,,Overcast,10,2013-01-02 12:35:00
6:55 AM,48.2,44.6,87,30.14,10.0,North,8.1,-,N/A,,Overcast,350,2013-01-02 12:55:00
7:15 AM,48.2,44.6,87,30.14,10.0,North,8.1,-,N/A,,Overcast,10,2013-01-02 13:15:00
7:35 AM,48.2,44.6,87,30.15,10.0,North,6.9,-,N/A,,Overcast,360,2013-01-02 13:35:00
7:55 AM,48.2,44.6,87,30.18,9.0,North,3.5,-,N/A,,Overcast,360,2013-01-02 13:55:00
8:15 AM,48.2,42.8,82,30.18,10.0,NNW,6.9,-,N/A,,Overcast,340,2013-01-02 14:15:00
8:35 AM,48.2,42.8,82,30.19,10.0,NNE,9.2,-,N/A,,Overcast,20,2013-01-02 14:35:00
8:55 AM,48.2,42.8,82,30.18,10.0,North,8.1,17.3,N/A,,Overcast,10,2013-01-02 14:55:00
9:15 AM,48.2,42.8,82,30.19,10.0,NNE,6.9,-,N/A,,Overcast,20,2013-01-02 15:15:00
9:35 AM,48.2,42.8,82,30.19,9.0,North,9.2,-,N/A,,Overcast,10,2013-01-02 15:35:00
9:55 AM,48.2,42.8,82,30.20,10.0,North,10.4,-,N/A,,Overcast,10,2013-01-02 15:55:00
10:15 AM,48.2,42.8,82,30.20,10.0,North,6.9,-,N/A,,Overcast,360,2013-01-02 16:15:00
10:35 AM,48.2,42.8,82,30.19,9.0,NNW,9.2,-,N/A,,Overcast,340,2013-01-02 16:35:00
10:55 AM,48.2,42.8,82,30.18,8.0,North,5.8,-,N/A,,Overcast,350,2013-01-02 16:55:00
11:15 AM,48.2,42.8,82,30.17,8.0,North,6.9,-,N/A,,Overcast,360,2013-01-02 17:15:00
11:35 AM,48.2,42.8,82,30.16,9.0,NNW,4.6,-,N/A,,Overcast,340,2013-01-02 17:35:00
11:55 AM,48.2,42.8,82,30.15,10.0,North,8.1,-,N/A,,Overcast,360,2013-01-02 17:55:00
12:15 PM,48.2,42.8,82,30.14,9.0,North,10.4,-,N/A,,Overcast,10,2013-01-02 18:15:00
12:35 PM,48.2,42.8,82,30.14,10.0,North,5.8,-,N/A,,Overcast,350,2013-01-02 18:35:00
12:55 PM,48.2,42.8,82,30.14,10.0,North,5.8,-,N/A,,Overcast,360,2013-01-02 18:55:00
1:15 PM,48.2,42.8,82,30.13,9.0,North,6.9,-,N/A,,Overcast,350,2013-01-02 19:15:00
1:35 PM,48.2,42.8,82,30.12,10.0,North,6.9,-,N/A,,Overcast,360,2013-01-02 19:35:00
1:55 PM,50.0,42.8,76,30.12,10.0,NNW,6.9,-,N/A,,Overcast,340,2013-01-02 19:55:00
2:15 PM,48.2,42.8,82,30.13,10.0,NNW,5.8,-,N/A,,Overcast,340,2013-01-02 20:15:00
2:35 PM,48.2,42.8,82,30.14,10.0,North,6.9,-,N/A,,Overcast,360,2013-01-02 20:35:00
2:55 PM,48.2,42.8,82,30.16,10.0,NW,6.9,-,N/A,,Overcast,310,2013-01-02 20:55:00
3:15 PM,48.2,41.0,76,30.17,10.0,NNW,5.8,-,N/A,,Overcast,340,2013-01-02 21:15:00
3:35 PM,48.2,42.8,82,30.18,10.0,NNW,10.4,-,N/A,,Overcast,340,2013-01-02 21:35:00
3:55 PM,48.2,42.8,82,30.18,10.0,North,8.1,-,N/A,,Overcast,360,2013-01-02 21:55:00
4:15 PM,48.2,42.8,82,30.17,10.0,North,8.1,-,N/A,,Overcast,10,2013-01-02 22:15:00
4:35 PM,48.2,42.8,82,30.16,10.0,North,8.1,-,N/A,,Overcast,10,2013-01-02 22:35:00
4:55 PM,48.2,42.8,82,30.17,10.0,North,5.8,-,N/A,,Overcast,350,2013-01-02 22:55:00
5:15 PM,48.2,42.8,82,30.17,10.0,North,8.1,-,N/A,,Overcast,360,2013-01-02 23:15:00
5:35 PM,48.2,42.8,82,30.17,10.0,North,8.1,-,N/A,,Overcast,10,2013-01-02 23:35:00
5:55 PM,48.2,42.8,82,30.18,10.0,North,6.9,-,N/A,,Overcast,350,2013-01-02 23:55:00
6:15 PM,48.2,41.0,76,30.18,10.0,North,9.2,16.1,N/A,,Overcast,10,2013-01-03 00:15:00
6:35 PM,48.2,41.0,76,30.19,7.0,North,6.9,-,N/A,,Overcast,10,2013-01-03 00:35:00
6:55 PM,46.4,42.8,87,30.19,10.0,North,5.8,-,N/A,,Overcast,360,2013-01-03 00:55:00
7:15 PM,46.4,42.8,87,30.20,10.0,North,5.8,-,N/A,,Overcast,10,2013-01-03 01:15:00
7:55 PM,46.4,42.8,87,30.20,10.0,NNE,6.9,-,N/A,,Overcast,20,2013-01-03 01:55:00
8:15 PM,46.4,42.8,87,30.20,10.0,NNE,6.9,-,N/A,,Mostly Cloudy,20,2013-01-03 02:15:00
8:35 PM,46.4,42.8,87,30.20,10.0,North,8.1,-,N/A,,Overcast,10,2013-01-03 02:35:00
8:55 PM,46.4,42.8,87,30.20,10.0,NNE,6.9,-,N/A,,Overcast,20,2013-01-03 02:55:00
9:15 PM,46.4,42.8,87,30.20,8.0,NNE,9.2,-,N/A,,Overcast,20,2013-01-03 03:15:00
9:35 PM,46.4,42.8,87,30.21,7.0,North,10.4,-,N/A,,Overcast,10,2013-01-03 03:35:00
9:55 PM,44.6,41.0,87,30.21,8.0,NNE,9.2,-,N/A,,Overcast,20,2013-01-03 03:55:00
10:15 PM,44.6,41.0,87,30.22,8.0,NNE,8.1,-,N/A,,Overcast,20,2013-01-03 04:15:00
10:35 PM,44.6,41.0,87,30.23,8.0,North,5.8,-,N/A,,Overcast,10,2013-01-03 04:35:00
10:55 PM,44.6,41.0,87,30.23,7.0,NNE,9.2,-,N/A,,Overcast,20,2013-01-03 04:55:00
11:15 PM,44.6,41.0,87,30.24,8.0,NNE,5.8,-,N/A,,Overcast,20,2013-01-03 05:15:00
11:35 PM,44.6,42.8,93,30.24,8.0,NNE,5.8,-,N/A,,Overcast,20,2013-01-03 05:35:00
11:55 PM,44.6,41.0,87,30.24,8.0,North,4.6,-,N/A,,Overcast,360,2013-01-03 05:55:00